Hourly Data Report for May 11, 2012

All times are specified in Local Standard Time (LST). Add 1 hour to adjust for Daylight Saving Time where and when it is observed.

PENTICTON A
BRITISH COLUMBIA

49°27'45.000" N
119°36'08.000" W
344.40 m
1126146
71889
YYF

Download Data

Hourly Data (May 2012)
Hourly Data Report for May 11, 2012
Temp Definition
°C
Dew Point Temp Definition
°C
Rel Hum Definition
%
Wind Dir Definition
10's deg

Wind Spd Definition
km/h
Visibility Definition
km
Stn Press Definition
kPa
Hmdx Definition


Wind Chill Definition


Weather Definition


TIME
00:00 1.3 -5.2 62   0 10.0 98.51     LegendNANA
01:00 -0.2 -4.8 71   0 10.0 98.55     Clear
02:00 0.4 -5.6 64   0 10.0 98.56     LegendNANA
03:00 0.1 -5.9 64 35 5 10.0 98.57     LegendNANA
04:00 -0.6 -6.0 67   0 10.0 98.62     Clear
05:00 -0.4 -6.0 66   0 10.0 98.65     LegendNANA
06:00 2.3 -3.2 67   0 10.0 98.68     LegendNANA
07:00 6.6 -4.8 44   0 10.0 98.68     Mostly Cloudy
08:00 7.9 -1.6 51 19 9 10.0 98.65     LegendNANA
09:00 10.9 -3.6 36 35 10 10.0 98.62     LegendNANA
10:00 12.4 -3.8 32 34 10 10.0 98.58     Mostly Cloudy
11:00 13.8 -4.8 27 36 8 10.0 98.51     LegendNANA
12:00 14.2 -4.5 27 36 18 10.0 98.44     LegendNANA
13:00 15.9 -4.6 24 0 10 10.0 98.36     Mainly Clear
14:00 17.4 -5.1 21 1 11 10.0 98.28     LegendNANA
15:00 17.6 -4.9 21 36 12 10.0 98.19     LegendNANA
16:00 18.0 -4.6 21 33 10 10.0 98.12     Clear
17:00 17.6 -3.1 24 34 9 10.0 98.06     LegendNANA
18:00 15.5 -3.9 26 36 12 10.0 98.03     LegendNANA
19:00 12.1 -2.5 36 33 10 10.0 98.06     Clear
20:00 8.4 -0.4 54 34 8 10.0 98.13     LegendNANA
21:00 7.8 -1.4 52   0 10.0 98.20     LegendNANA
22:00 7.5 -2.0 51   0 10.0 98.25     Clear
23:00 4.9 -2.0 61 5 4 10.0 98.33     LegendNANA

Notes on Data Quality.

Legend

  • E = Estimated
  • M = Missing
  • NA = Not Available
Date modified: